Change the Weather History Date:

Saturday, November 3, 2012

  Actual Average Record
Temperature  
Mean Temperature 45 °F -  
Max Temperature 53 °F 58 °F 77 °F (1982)
Min Temperature 39 °F 37 °F 17 °F (1980)
Degree Days  
Heating Degree Days 20    
Moisture  
Dew Point 33 °F    
Average Humidity 64    
Maximum Humidity 77    
Minimum Humidity 52    
Precipitation  
Precipitation 0.00 in - - ()
Sea Level Pressure  
Sea Level Pressure 29.74 in    
Wind  
Wind Speed 8 mph (WNW)    
Max Wind Speed 16 mph    
Max Gust Speed 23 mph    
Visibility 10 miles    
Events      
Averages and records for this station are not official NWS values.
T = Trace of Precipitation, MM = Missing Value Source: NWS Daily Summary

Daily Weather History Graph

Daily Weather History Graph

Search for Another Location

Airport or City:

Trip Planner

Search our weather history database for the weather conditions in past years. The results will help you decide how hot, cold, wet, or windy it might be!

Date:

Astronomy

Nov. 03, 2012 Rise Set
Actual Time 7:21 AM EDT 5:35 PM EDT
Civil Twilight 6:52 AM EDT 6:04 PM EDT
Nautical Twilight 6:18 AM EDT 6:37 PM EDT
Astronomical Twilight 5:46 AM EDT 7:10 PM EDT
Moon 9:11 PM EDT (11/3) 11:25 AM EDT (11/3)
Length of Visible Light 11h 12m
Length of Day
10h 13m
Waning Gibbous, 80% of the Moon is Illuminated
Nov 3
Waning Gibbous
Nov 6
Last Quarter
Nov 13
New
Nov 20
First Quarter
Nov 28
Full

Hourly Weather History & Observations

Time (EDT) Temp. Windchill Dew Point Humidity Pressure Visibility Wind Dir Wind Speed Gust Speed Precip Events Conditions
12:56 AM 42.1 °F 39.2 °F 35.1 °F 76% 29.65 in 10.0 mi WSW 4.6 mph - N/A   Overcast
1:56 AM 42.1 °F 37.7 °F 34.0 °F 73% 29.65 in 10.0 mi West 6.9 mph - N/A   Overcast
2:56 AM 39.9 °F 34.5 °F 33.1 °F 77% 29.66 in 10.0 mi West 8.1 mph - N/A   Overcast
3:56 AM 41.0 °F 35.2 °F 33.1 °F 73% 29.66 in 10.0 mi West 9.2 mph - N/A   Overcast
4:56 AM 41.0 °F 35.8 °F 33.1 °F 73% 29.67 in 10.0 mi West 8.1 mph - N/A   Overcast
5:56 AM 42.1 °F 38.4 °F 34.0 °F 73% 29.68 in 10.0 mi West 5.8 mph - N/A   Overcast
6:56 AM 42.1 °F 37.7 °F 34.0 °F 73% 29.70 in 10.0 mi WNW 6.9 mph - N/A   Overcast
7:56 AM 42.1 °F 38.4 °F 34.0 °F 73% 29.72 in 10.0 mi West 5.8 mph - N/A   Mostly Cloudy
8:56 AM 44.1 °F 40.8 °F 34.0 °F 68% 29.74 in 10.0 mi WNW 5.8 mph - N/A   Mostly Cloudy
9:56 AM 45.0 °F 40.6 °F 35.1 °F 68% 29.75 in 10.0 mi NW 8.1 mph - N/A   Mostly Cloudy
10:56 AM 46.9 °F - 34.0 °F 61% 29.75 in 10.0 mi NW 16.1 mph 21.9 mph N/A   Mostly Cloudy
11:56 AM 50.0 °F - 35.1 °F 57% 29.75 in 10.0 mi NW 10.4 mph - N/A   Mostly Cloudy
12:56 PM 50.0 °F - 34.0 °F 54% 29.74 in 10.0 mi WNW 12.7 mph 20.7 mph N/A   Scattered Clouds
1:56 PM 51.1 °F - 34.0 °F 52% 29.73 in 10.0 mi WNW 13.8 mph 23.0 mph N/A   Mostly Cloudy
2:56 PM 48.9 °F - 33.1 °F 54% 29.73 in 10.0 mi WNW 13.8 mph - N/A   Partly Cloudy
3:56 PM 50.0 °F - 33.1 °F 52% 29.75 in 10.0 mi WNW 12.7 mph - N/A   Clear
4:56 PM 46.9 °F - 30.9 °F 54% 29.78 in 10.0 mi NW 13.8 mph 21.9 mph N/A   Mostly Cloudy
5:56 PM 46.0 °F 40.6 °F 30.9 °F 56% 29.79 in 10.0 mi NW 11.5 mph - N/A   Scattered Clouds
6:56 PM 44.1 °F 38.6 °F 30.0 °F 58% 29.81 in 10.0 mi WNW 10.4 mph - N/A   Mostly Cloudy
7:56 PM 42.1 °F 37.7 °F 30.0 °F 62% 29.81 in 10.0 mi West 6.9 mph - N/A   Clear
8:56 PM 42.1 °F 37.7 °F 28.9 °F 60% 29.82 in 10.0 mi West 6.9 mph - N/A   Clear
9:56 PM 41.0 °F 35.2 °F 28.9 °F 62% 29.84 in 10.0 mi West 9.2 mph - N/A   Scattered Clouds
10:56 PM 39.9 °F 34.5 °F 28.9 °F 65% 29.83 in 10.0 mi West 8.1 mph - N/A   Clear
11:56 PM 39.0 °F 32.8 °F 28.9 °F 67% 29.83 in 10.0 mi West 9.2 mph - N/A   Clear